Location: Newark
(7.0858°N, 171.3717°E)
Time: 03:56:19
(UTC+00:00)

Vanguard 2 - Pass Details

Date: 30 November 2020
Orbit: 553 x 2937 km, 32.9° (Epoch: 26 January)

Event Time Altitude Azimuth Distance (km) Brightness Sun altitude
Rises 18:13:38 0° 233° (SW) 6,468 11.9 -4.9°
Reaches altitude 10° 18:18:22 10° 233° (SW) 5,202 11.5 -3.8°
Maximum altitude 18:32:41 84° 146° (SE) 1,766 9.5 -0.5°
Drops below altitude 10° 18:41:03 10° 58° (ENE) 3,201 11.3 1.4°
Sets 18:43:18 0° 58° (ENE) 3,923 11.7 1.9°
